status,avgMeasuredTime,avgSpeed,extID,medianMeasuredTime,TIMESTAMP,vehicleCount,_id,REPORT_ID
OK,97,51,928,97,2014-08-01T08:00:00,0,20746983,198085
OK,125,39,928,125,2014-08-01T08:05:00,1,20747432,198085
OK,129,38,928,129,2014-08-01T08:10:00,6,20747805,198085
OK,133,37,928,133,2014-08-01T08:15:00,5,20748254,198085
OK,123,40,928,123,2014-08-01T08:20:00,0,20748703,198085
OK,94,52,928,94,2014-08-01T08:25:00,1,20749152,198085
OK,111,44,928,111,2014-08-01T08:30:00,2,20749601,198085
OK,144,34,928,144,2014-08-01T08:35:00,4,20750050,198085
OK,144,34,928,144,2014-08-01T08:40:00,4,20750499,198085
OK,92,54,928,92,2014-08-01T08:45:00,1,20750948,198085
OK,138,36,928,138,2014-08-01T08:50:00,3,20751397,198085
OK,137,36,928,137,2014-08-01T08:55:00,6,20751846,198085
OK,119,41,928,119,2014-08-01T09:00:00,5,20752295,198085
OK,119,41,928,119,2014-08-01T09:05:00,3,20752744,198085
OK,145,34,928,145,2014-08-01T09:10:00,3,20753193,198085
OK,109,45,928,109,2014-08-01T09:20:00,2,20754091,198085
OK,126,39,928,126,2014-08-01T09:25:00,6,20754540,198085
OK,140,35,928,140,2014-08-01T09:30:00,4,20754989,198085
OK,115,43,928,115,2014-08-01T09:35:00,2,20755438,198085
OK,130,38,928,130,2014-08-01T09:40:00,4,20755887,198085
OK,141,35,928,141,2014-08-01T09:45:00,5,20756336,198085
OK,206,24,928,206,2014-08-01T09:50:00,1,20756785,198085
OK,143,34,928,143,2014-08-01T09:55:00,3,20757234,198085
OK,143,34,928,143,2014-08-01T10:00:00,3,20757683,198085
OK,160,31,928,160,2014-08-01T10:05:00,2,20758132,198085
OK,216,23,928,216,2014-08-01T10:15:00,2,20759030,198085
OK,155,32,928,155,2014-08-01T10:20:00,1,20759479,198085
OK,155,32,928,155,2014-08-01T10:25:00,3,20759928,198085
OK,171,29,928,171,2014-08-01T10:30:00,1,20760377,198085
OK,171,29,928,171,2014-08-01T10:35:00,0,20760826,198085
OK,139,35,928,139,2014-08-01T10:40:00,1,20761275,198085
OK,135,36,928,135,2014-08-01T10:45:00,2,20761724,198085
OK,119,41,928,119,2014-08-01T10:50:00,4,20762173,198085
OK,111,44,928,111,2014-08-01T10:55:00,5,20762622,198085
OK,100,49,928,100,2014-08-01T11:00:00,4,20763071,198085
OK,120,41,928,120,2014-08-01T11:05:00,5,20763520,198085
OK,160,31,928,160,2014-08-01T11:10:00,3,20763969,198085
OK,160,31,928,160,2014-08-01T11:15:00,0,20764417,198085
OK,160,31,928,160,2014-08-01T11:20:00,0,20764866,198085
OK,131,38,928,131,2014-08-01T11:25:00,5,20765315,198085
OK,126,39,928,126,2014-08-01T11:30:00,5,20765764,198085
OK,114,43,928,114,2014-08-01T11:35:00,5,20766213,198085
OK,115,43,928,115,2014-08-01T11:40:00,7,20766662,198085
OK,117,42,928,117,2014-08-01T11:45:00,4,20767111,198085
OK,128,38,928,128,2014-08-01T11:50:00,5,20767560,198085
OK,126,39,928,126,2014-08-01T11:55:00,6,20768009,198085
OK,121,41,928,121,2014-08-01T12:00:00,7,20768458,198085
OK,117,42,928,117,2014-08-01T12:10:00,2,20769356,198085
OK,110,45,928,110,2014-08-01T12:15:00,3,20769805,198085
OK,163,30,928,163,2014-08-01T12:20:00,4,20770254,198085
OK,147,33,928,147,2014-08-01T12:25:00,8,20770703,198085
OK,126,39,928,126,2014-08-01T12:30:00,2,20771152,198085
OK,162,30,928,162,2014-08-01T12:35:00,7,20771601,198085
OK,162,30,928,162,2014-08-01T12:40:00,5,20772050,198085
OK,169,29,928,169,2014-08-01T12:45:00,6,20772499,198085
OK,136,36,928,136,2014-08-01T12:50:00,7,20772948,198085
OK,168,29,928,168,2014-08-01T12:55:00,9,20773397,198085
OK,182,27,928,182,2014-08-01T13:00:00,7,20773846,198085
OK,144,34,928,144,2014-08-01T13:05:00,2,20774295,198085
OK,144,34,928,144,2014-08-01T13:10:00,4,20774744,198085
OK,173,28,928,173,2014-08-01T13:15:00,7,20775193,198085
OK,139,35,928,139,2014-08-01T13:20:00,9,20775642,198085
OK,135,36,928,135,2014-08-01T13:25:00,4,20776091,198085
OK,132,37,928,132,2014-08-01T13:30:00,2,20776540,198085
OK,154,32,928,154,2014-08-01T13:35:00,2,20776989,198085
OK,146,34,928,146,2014-08-01T13:40:00,3,20777438,198085
OK,162,30,928,162,2014-08-01T13:45:00,2,20777887,198085
OK,134,37,928,134,2014-08-01T13:50:00,2,20778336,198085
OK,132,37,928,132,2014-08-01T14:00:00,8,20779234,198085
OK,130,38,928,130,2014-08-01T14:05:00,5,20779683,198085
OK,90,55,928,90,2014-08-01T14:10:00,3,20780132,198085
OK,130,38,928,130,2014-08-01T14:15:00,5,20780581,198085
OK,174,28,928,174,2014-08-01T14:20:00,6,20781030,198085
OK,179,27,928,179,2014-08-01T14:25:00,6,20781479,198085
OK,258,19,928,258,2014-08-01T14:30:00,3,20781928,198085
OK,259,19,928,259,2014-08-01T14:35:00,0,20782377,198085
OK,172,28,928,172,2014-08-01T14:40:00,1,20782826,198085
OK,171,29,928,171,2014-08-01T14:45:00,3,20783275,198085
OK,144,34,928,144,2014-08-01T14:50:00,2,20783724,198085
OK,64,77,928,64,2014-08-01T14:55:00,1,20784173,198085
OK,111,44,928,111,2014-08-01T15:00:00,4,20784622,198085
OK,141,35,928,141,2014-08-01T15:05:00,6,20785071,198085
OK,157,31,928,157,2014-08-01T15:10:00,6,20785520,198085
OK,175,28,928,175,2014-08-01T15:15:00,4,20785969,198085
OK,117,42,928,117,2014-08-01T15:20:00,2,20786418,198085
OK,112,44,928,112,2014-08-01T15:25:00,1,20786867,198085
OK,174,28,928,174,2014-08-01T15:30:00,2,20787316,198085
OK,142,35,928,142,2014-08-01T15:35:00,4,20787765,198085
OK,122,40,928,122,2014-08-01T15:40:00,4,20788214,198085
OK,124,40,928,124,2014-08-01T15:45:00,3,20788663,198085
OK,120,41,928,120,2014-08-01T15:50:00,0,20789112,198085
OK,120,41,928,120,2014-08-01T15:55:00,0,20789561,198085
OK,109,45,928,109,2014-08-01T16:00:00,2,20790010,198085
OK,130,38,928,130,2014-08-01T16:05:00,4,20790459,198085
OK,136,36,928,136,2014-08-01T16:10:00,1,20790908,198085
OK,136,36,928,136,2014-08-01T16:15:00,0,20791357,198085
OK,136,36,928,136,2014-08-01T16:20:00,0,20791806,198085
OK,136,36,928,136,2014-08-01T16:25:00,0,20792255,198085
OK,154,32,928,154,2014-08-01T16:30:00,1,20792704,198085
OK,131,38,928,131,2014-08-01T16:35:00,3,20793153,198085
OK,93,53,928,93,2014-08-01T16:40:00,3,20793602,198085
OK,113,44,928,113,2014-08-01T16:45:00,3,20794051,198085
OK,113,44,928,113,2014-08-01T16:50:00,1,20794500,198085
OK,123,40,928,123,2014-08-01T16:55:00,1,20794949,198085
OK,123,40,928,123,2014-08-01T17:00:00,1,20795398,198085
OK,138,36,928,138,2014-08-01T17:05:00,1,20795847,198085
OK,101,49,928,101,2014-08-01T17:10:00,1,20796296,198085
OK,101,49,928,101,2014-08-01T17:15:00,0,20796745,198085
OK,101,49,928,101,2014-08-01T17:20:00,0,20797194,198085
OK,101,49,928,101,2014-08-01T17:25:00,0,20797643,198085
OK,101,49,928,101,2014-08-01T17:30:00,0,20798092,198085
OK,101,49,928,101,2014-08-01T17:35:00,0,20798541,198085
OK,101,49,928,101,2014-08-01T17:40:00,0,20798990,198085
OK,226,22,928,226,2014-08-01T17:45:00,2,20799439,198085
OK,158,31,928,158,2014-08-01T17:50:00,0,20799888,198085
OK,114,43,928,114,2014-08-01T17:55:00,2,20800337,198085
OK,114,43,928,114,2014-08-01T18:00:00,2,20800786,198085
OK,157,31,928,157,2014-08-01T18:05:00,3,20801235,198085
OK,155,32,928,155,2014-08-01T18:10:00,2,20801684,198085
OK,125,39,928,125,2014-08-01T18:15:00,1,20802133,198085
OK,125,39,928,125,2014-08-01T18:20:00,1,20802582,198085
OK,125,39,928,125,2014-08-01T18:25:00,0,20803031,198085
OK,125,39,928,125,2014-08-01T18:30:00,0,20803480,198085
OK,112,44,928,112,2014-08-01T18:35:00,1,20803929,198085
OK,112,44,928,112,2014-08-01T18:40:00,1,20804378,198085
OK,112,44,928,112,2014-08-01T18:45:00,0,20804827,198085
OK,112,44,928,112,2014-08-01T18:50:00,0,20805276,198085
OK,100,49,928,100,2014-08-01T18:55:00,1,20805725,198085
OK,107,46,928,107,2014-08-01T19:00:00,1,20806174,198085
OK,107,46,928,107,2014-08-01T19:05:00,0,20806623,198085
OK,107,46,928,107,2014-08-01T19:10:00,0,20807072,198085
OK,107,46,928,107,2014-08-01T19:15:00,0,20807521,198085
OK,80,62,928,80,2014-08-01T19:20:00,3,20807970,198085
OK,80,62,928,80,2014-08-01T19:25:00,3,20808419,198085
OK,80,62,928,80,2014-08-01T19:30:00,0,20808868,198085
OK,80,62,928,80,2014-08-01T19:35:00,0,20809317,198085
OK,80,62,928,80,2014-08-01T19:40:00,0,20809766,198085
OK,80,62,928,80,2014-08-01T19:45:00,0,20810215,198085
OK,80,62,928,80,2014-08-01T19:50:00,0,20810664,198085
OK,103,48,928,103,2014-08-01T19:55:00,1,20811113,198085
OK,103,48,928,103,2014-08-01T22:00:00,0,20816842,198085
OK,79,63,928,79,2014-08-02T00:00:00,0,20823281,198085
OK,79,63,928,79,2014-08-02T00:05:00,0,20823730,198085
OK,79,63,928,79,2014-08-02T00:10:00,0,20824179,198085
OK,79,63,928,79,2014-08-02T00:15:00,0,20824628,198085
OK,79,63,928,79,2014-08-02T00:20:00,0,20825077,198085
OK,79,63,928,79,2014-08-02T00:25:00,0,20825526,198085
OK,79,63,928,79,2014-08-02T00:30:00,0,20825975,198085
OK,79,63,928,79,2014-08-02T00:35:00,0,20826424,198085
OK,79,63,928,79,2014-08-02T00:40:00,0,20826873,198085
OK,95,52,928,95,2014-08-02T00:45:00,1,20827322,198085
OK,95,52,928,95,2014-08-02T00:50:00,0,20827771,198085
OK,95,52,928,95,2014-08-02T00:55:00,0,20828220,198085
OK,95,52,928,95,2014-08-02T01:00:00,0,20828669,198085
OK,95,52,928,95,2014-08-02T01:05:00,0,20829118,198085
OK,95,52,928,95,2014-08-02T01:10:00,0,20829567,198085
OK,95,52,928,95,2014-08-02T01:15:00,0,20830016,198085
OK,95,52,928,95,2014-08-02T01:20:00,0,20830465,198085
OK,95,52,928,95,2014-08-02T01:25:00,0,20830914,198085
OK,95,52,928,95,2014-08-02T01:30:00,0,20831363,198085
OK,95,52,928,95,2014-08-02T01:35:00,0,20831812,198085
OK,95,52,928,95,2014-08-02T01:40:00,0,20832261,198085
OK,95,52,928,95,2014-08-02T01:45:00,0,20832710,198085
OK,95,52,928,95,2014-08-02T01:50:00,0,20833159,198085
OK,95,52,928,95,2014-08-02T01:55:00,0,20833608,198085
OK,95,52,928,95,2014-08-02T02:00:00,0,20834057,198085
OK,95,52,928,95,2014-08-02T02:05:00,0,20834506,198085
OK,95,52,928,95,2014-08-02T02:10:00,0,20834955,198085
OK,95,52,928,95,2014-08-02T02:15:00,0,20835404,198085
OK,95,52,928,95,2014-08-02T02:20:00,0,20835853,198085
OK,95,52,928,95,2014-08-02T02:25:00,0,20836302,198085
OK,95,52,928,95,2014-08-02T02:30:00,0,20836751,198085
OK,95,52,928,95,2014-08-02T02:35:00,0,20837200,198085
OK,119,41,928,119,2014-08-02T02:40:00,1,20837649,198085
OK,119,41,928,119,2014-08-02T02:45:00,1,20838098,198085
OK,119,41,928,119,2014-08-02T02:50:00,0,20838547,198085
OK,119,41,928,119,2014-08-02T02:55:00,0,20838996,198085
OK,119,41,928,119,2014-08-02T03:00:00,0,20839445,198085
OK,103,48,928,103,2014-08-02T03:05:00,1,20839894,198085
OK,103,48,928,103,2014-08-02T03:10:00,0,20840343,198085
OK,103,48,928,103,2014-08-02T03:15:00,0,20840792,198085
OK,103,48,928,103,2014-08-02T03:20:00,0,20841241,198085
OK,103,48,928,103,2014-08-02T03:25:00,0,20841690,198085
OK,103,48,928,103,2014-08-02T03:30:00,0,20842139,198085
OK,103,48,928,103,2014-08-02T03:35:00,0,20842588,198085
OK,103,48,928,103,2014-08-02T03:40:00,0,20843037,198085
OK,103,48,928,103,2014-08-02T03:45:00,0,20843486,198085
OK,128,38,928,128,2014-08-02T03:50:00,1,20843935,198085
OK,128,38,928,128,2014-08-02T03:55:00,1,20844384,198085
OK,101,49,928,101,2014-08-02T06:00:00,1,20851838,198085
OK,101,49,928,101,2014-08-02T06:05:00,1,20852287,198085
OK,142,35,928,142,2014-08-02T06:10:00,1,20852736,198085
OK,142,35,928,142,2014-08-02T06:15:00,1,20853185,198085
OK,142,35,928,142,2014-08-02T06:20:00,0,20853634,198085
OK,142,35,928,142,2014-08-02T06:25:00,0,20854083,198085
OK,115,43,928,115,2014-08-02T06:30:00,1,20854532,198085
OK,115,43,928,115,2014-08-02T06:35:00,1,20854981,198085
OK,115,43,928,115,2014-08-02T06:40:00,0,20855430,198085
OK,115,43,928,115,2014-08-02T06:45:00,0,20855879,198085
OK,115,43,928,115,2014-08-02T06:50:00,0,20856328,198085
OK,115,43,928,115,2014-08-02T06:55:00,0,20856777,198085
OK,115,43,928,115,2014-08-02T07:00:00,0,20857226,198085
OK,115,43,928,115,2014-08-02T07:05:00,0,20857675,198085
OK,115,43,928,115,2014-08-02T07:10:00,1,20858124,198085
OK,115,43,928,115,2014-08-02T07:15:00,0,20858573,198085
OK,112,44,928,112,2014-08-02T07:20:00,1,20859022,198085
OK,115,43,928,115,2014-08-02T07:25:00,2,20859471,198085
OK,119,41,928,119,2014-08-02T07:30:00,3,20859920,198085
OK,153,32,928,153,2014-08-02T07:35:00,1,20860369,198085
OK,115,43,928,115,2014-08-02T07:40:00,1,20860818,198085
OK,115,43,928,115,2014-08-02T07:45:00,1,20861267,198085
OK,140,35,928,140,2014-08-02T07:50:00,1,20861716,198085
OK,140,35,928,140,2014-08-02T07:55:00,1,20862165,198085
OK,112,44,928,112,2014-08-02T08:00:00,2,20862614,198085
OK,127,39,928,127,2014-08-02T08:05:00,3,20863063,198085
OK,127,39,928,127,2014-08-02T08:10:00,1,20863512,198085
OK,127,39,928,127,2014-08-02T08:15:00,0,20863961,198085
OK,129,38,928,129,2014-08-02T08:20:00,2,20864410,198085
OK,101,49,928,101,2014-08-02T08:25:00,6,20864859,198085
OK,98,50,928,98,2014-08-02T08:30:00,4,20865308,198085
OK,93,53,928,93,2014-08-02T08:35:00,1,20865757,198085
OK,100,49,928,100,2014-08-02T08:40:00,2,20866206,198085
OK,84,59,928,84,2014-08-02T08:45:00,1,20866655,198085
OK,84,59,928,84,2014-08-02T08:50:00,0,20867104,198085
OK,79,63,928,79,2014-08-02T08:55:00,1,20867553,198085
OK,100,49,928,100,2014-08-02T09:00:00,1,20868002,198085
OK,100,49,928,100,2014-08-02T09:05:00,1,20868451,198085
OK,100,49,928,100,2014-08-02T09:10:00,0,20868900,198085
OK,100,49,928,100,2014-08-02T09:15:00,0,20869349,198085
OK,117,42,928,117,2014-08-02T09:20:00,2,20869798,198085
OK,103,48,928,103,2014-08-02T09:25:00,3,20870247,198085
OK,128,38,928,128,2014-08-02T09:30:00,2,20870696,198085
OK,120,41,928,120,2014-08-02T09:35:00,2,20871145,198085
OK,87,57,928,87,2014-08-02T09:40:00,1,20871594,198085
OK,87,57,928,87,2014-08-02T09:45:00,0,20872043,198085
OK,87,57,928,87,2014-08-02T09:50:00,0,20872492,198085
OK,87,57,928,87,2014-08-02T09:55:00,0,20872941,198085
OK,87,57,928,87,2014-08-02T10:00:00,0,20873390,198085
OK,124,40,928,124,2014-08-02T10:05:00,3,20873839,198085
OK,147,33,928,147,2014-08-02T10:10:00,4,20874288,198085
OK,171,29,928,171,2014-08-02T10:15:00,1,20874737,198085
OK,111,44,928,111,2014-08-02T10:20:00,1,20875186,198085
OK,117,42,928,117,2014-08-02T10:25:00,3,20875635,198085
OK,117,42,928,117,2014-08-02T10:30:00,1,20876084,198085
OK,152,32,928,152,2014-08-02T10:35:00,5,20876533,198085
OK,153,32,928,153,2014-08-02T10:40:00,4,20876982,198085
OK,121,41,928,121,2014-08-02T10:45:00,1,20877431,198085
OK,135,36,928,135,2014-08-02T10:50:00,3,20877880,198085
OK,145,34,928,145,2014-08-02T10:55:00,4,20878329,198085
OK,118,42,928,118,2014-08-02T11:00:00,2,20878778,198085
OK,130,38,928,130,2014-08-02T11:05:00,1,20879227,198085
OK,130,38,928,130,2014-08-02T11:10:00,0,20879676,198085
OK,130,38,928,130,2014-08-02T11:15:00,0,20880125,198085
OK,98,50,928,98,2014-08-02T11:20:00,1,20880574,198085
OK,127,39,928,127,2014-08-02T11:25:00,5,20881023,198085
OK,128,38,928,128,2014-08-02T11:30:00,4,20881472,198085
OK,139,35,928,139,2014-08-02T11:35:00,3,20881921,198085
OK,106,46,928,106,2014-08-02T11:40:00,3,20882370,198085
OK,81,61,928,81,2014-08-02T11:45:00,1,20882819,198085
OK,81,61,928,81,2014-08-02T11:50:00,0,20883268,198085
OK,116,42,928,116,2014-08-02T11:55:00,3,20883717,198085
OK,115,43,928,115,2014-08-02T12:00:00,4,20884166,198085
OK,115,43,928,115,2014-08-02T12:05:00,1,20884615,198085
OK,115,43,928,115,2014-08-02T12:10:00,0,20885064,198085
OK,97,51,928,97,2014-08-02T12:15:00,1,20885513,198085
OK,119,41,928,119,2014-08-02T12:20:00,3,20885962,198085
OK,119,41,928,119,2014-08-02T12:25:00,3,20886411,198085
OK,144,34,928,144,2014-08-02T12:30:00,2,20886860,198085
OK,144,34,928,144,2014-08-02T12:35:00,2,20887309,198085
OK,113,44,928,113,2014-08-02T12:40:00,2,20887758,198085
OK,113,44,928,113,2014-08-02T12:45:00,2,20888207,198085
OK,94,52,928,94,2014-08-02T12:50:00,0,20888656,198085
OK,133,37,928,133,2014-08-02T12:55:00,2,20889105,198085
OK,142,35,928,142,2014-08-02T13:00:00,2,20889554,198085
OK,123,40,928,123,2014-08-02T13:05:00,3,20890003,198085
OK,152,32,928,152,2014-08-02T13:10:00,3,20890452,198085
OK,152,32,928,152,2014-08-02T13:15:00,1,20890901,198085
OK,152,32,928,152,2014-08-02T13:20:00,0,20891350,198085
OK,191,26,928,191,2014-08-02T13:25:00,2,20891799,198085
OK,88,56,928,88,2014-08-02T13:30:00,1,20892248,198085
OK,109,45,928,109,2014-08-02T13:35:00,1,20892697,198085
OK,132,37,928,132,2014-08-02T13:40:00,2,20893146,198085
OK,118,42,928,118,2014-08-02T13:45:00,2,20893595,198085
OK,105,47,928,105,2014-08-02T13:50:00,2,20894044,198085
OK,146,34,928,146,2014-08-02T13:55:00,1,20894493,198085
OK,146,34,928,146,2014-08-02T14:00:00,1,20894942,198085
OK,146,34,928,146,2014-08-02T14:05:00,0,20895391,198085
OK,146,34,928,146,2014-08-02T14:10:00,0,20895840,198085
OK,77,64,928,77,2014-08-02T14:15:00,1,20896289,198085
OK,77,64,928,77,2014-08-02T14:20:00,1,20896738,198085
OK,127,39,928,127,2014-08-02T14:25:00,1,20897187,198085
OK,103,48,928,103,2014-08-02T14:30:00,2,20897636,198085
OK,155,32,928,155,2014-08-02T14:35:00,1,20898085,198085
OK,136,36,928,136,2014-08-02T14:40:00,3,20898534,198085
OK,123,40,928,123,2014-08-02T14:45:00,3,20898983,198085
OK,114,43,928,114,2014-08-02T14:50:00,4,20899432,198085
OK,91,54,928,91,2014-08-02T14:55:00,2,20899881,198085
OK,107,46,928,107,2014-08-02T15:00:00,2,20900330,198085
OK,118,42,928,118,2014-08-02T15:05:00,1,20900779,198085
OK,118,42,928,118,2014-08-02T15:10:00,0,20901228,198085
OK,118,42,928,118,2014-08-02T15:15:00,0,20901677,198085
OK,118,42,928,118,2014-08-02T15:20:00,0,20902126,198085
OK,187,26,928,187,2014-08-02T15:25:00,1,20902575,198085
OK,172,28,928,172,2014-08-02T15:30:00,2,20903024,198085
OK,161,30,928,161,2014-08-02T15:35:00,1,20903473,198085
OK,169,29,928,169,2014-08-02T15:40:00,1,20903922,198085
OK,141,35,928,141,2014-08-02T15:45:00,1,20904371,198085
OK,133,37,928,133,2014-08-02T15:50:00,2,20904820,198085
OK,126,39,928,126,2014-08-02T15:55:00,1,20905269,198085
OK,154,32,928,154,2014-08-02T16:00:00,1,20905718,198085
OK,154,32,928,154,2014-08-02T16:05:00,1,20906167,198085
OK,154,32,928,154,2014-08-02T16:10:00,0,20906616,198085
OK,121,41,928,121,2014-08-02T16:15:00,1,20907065,198085
OK,114,43,928,114,2014-08-02T16:20:00,2,20907514,198085
OK,110,45,928,110,2014-08-02T16:25:00,2,20907963,198085
OK,113,44,928,113,2014-08-02T16:30:00,1,20908412,198085
OK,126,39,928,126,2014-08-02T16:35:00,1,20908861,198085
OK,126,39,928,126,2014-08-02T16:40:00,1,20909310,198085
OK,126,39,928,126,2014-08-02T16:45:00,0,20909759,198085
OK,89,55,928,89,2014-08-02T16:50:00,2,20910208,198085
OK,83,59,928,83,2014-08-02T16:55:00,2,20910657,198085
OK,89,55,928,89,2014-08-02T17:00:00,1,20911106,198085
OK,163,30,928,163,2014-08-02T17:05:00,1,20911555,198085
OK,163,30,928,163,2014-08-02T17:10:00,1,20912004,198085
OK,163,30,928,163,2014-08-02T17:15:00,0,20912453,198085
OK,135,36,928,135,2014-08-02T17:20:00,1,20912902,198085
OK,135,36,928,135,2014-08-02T17:25:00,1,20913351,198085
OK,135,36,928,135,2014-08-02T17:30:00,0,20913800,198085
OK,135,36,928,135,2014-08-02T17:35:00,0,20914249,198085
OK,135,36,928,135,2014-08-02T17:40:00,0,20914698,198085
OK,135,36,928,135,2014-08-02T17:45:00,0,20915147,198085
OK,135,36,928,135,2014-08-02T17:50:00,0,20915596,198085
OK,139,35,928,139,2014-08-02T17:55:00,2,20916045,198085
OK,154,32,928,154,2014-08-02T18:00:00,1,20916494,198085
OK,154,32,928,154,2014-08-02T18:05:00,0,20916943,198085
OK,214,23,928,214,2014-08-02T18:10:00,1,20917392,198085
OK,214,23,928,214,2014-08-02T18:15:00,1,20917841,198085
OK,102,48,928,102,2014-08-02T18:20:00,1,20918290,198085
OK,102,48,928,102,2014-08-02T18:25:00,0,20918739,198085
OK,102,48,928,102,2014-08-02T18:30:00,0,20919188,198085
OK,102,48,928,102,2014-08-02T18:35:00,0,20919637,198085
OK,102,48,928,102,2014-08-02T18:40:00,0,20920086,198085
OK,102,48,928,102,2014-08-02T18:45:00,0,20920535,198085
OK,99,50,928,99,2014-08-02T18:50:00,1,20920984,198085
OK,96,51,928,96,2014-08-02T18:55:00,2,20921433,198085
OK,93,53,928,93,2014-08-02T19:00:00,1,20921882,198085
OK,93,53,928,93,2014-08-02T19:05:00,0,20922331,198085
OK,88,56,928,88,2014-08-02T19:10:00,2,20922780,198085
OK,66,75,928,66,2014-08-02T19:15:00,1,20923229,198085
OK,109,45,928,109,2014-08-02T19:20:00,1,20923678,198085
OK,102,48,928,102,2014-08-02T19:25:00,4,20924127,198085
OK,96,51,928,96,2014-08-02T19:30:00,3,20924576,198085
OK,123,40,928,123,2014-08-02T19:35:00,0,20925025,198085
OK,123,40,928,123,2014-08-02T19:40:00,0,20925474,198085
OK,123,40,928,123,2014-08-02T19:45:00,0,20925923,198085
OK,123,40,928,123,2014-08-02T19:50:00,0,20926372,198085
OK,123,40,928,123,2014-08-02T19:55:00,0,20926821,198085
OK,123,40,928,123,2014-08-02T20:00:00,0,20927270,198085
OK,123,40,928,123,2014-08-02T20:05:00,0,20927719,198085
OK,115,43,928,115,2014-08-02T20:10:00,1,20928168,198085
OK,106,46,928,106,2014-08-02T20:15:00,1,20928617,198085
OK,106,46,928,106,2014-08-02T20:20:00,1,20929066,198085
OK,106,46,928,106,2014-08-02T20:25:00,0,20929515,198085
OK,106,46,928,106,2014-08-02T20:30:00,0,20929964,198085
OK,106,46,928,106,2014-08-02T20:35:00,0,20930413,198085
OK,106,46,928,106,2014-08-02T20:40:00,0,20930862,198085
OK,106,46,928,106,2014-08-02T20:45:00,0,20931311,198085
OK,106,46,928,106,2014-08-02T20:50:00,0,20931760,198085
OK,106,46,928,106,2014-08-02T20:55:00,0,20932209,198085
OK,106,46,928,106,2014-08-02T21:00:00,0,20932658,198085
OK,106,46,928,106,2014-08-02T21:05:00,0,20933107,198085
OK,139,35,928,139,2014-08-02T21:10:00,1,20933556,198085
OK,139,35,928,139,2014-08-02T21:15:00,1,20934005,198085
OK,139,35,928,139,2014-08-02T21:20:00,0,20934454,198085
OK,139,35,928,139,2014-08-02T21:25:00,0,20934903,198085
OK,90,55,928,90,2014-08-02T21:30:00,1,20935352,198085
OK,90,55,928,90,2014-08-02T21:35:00,1,20935801,198085
OK,90,55,928,90,2014-08-02T21:40:00,0,20936250,198085
OK,90,55,928,90,2014-08-02T21:45:00,0,20936699,198085
OK,90,55,928,90,2014-08-02T21:50:00,0,20937148,198085
OK,90,55,928,90,2014-08-02T21:55:00,0,20937597,198085
OK,90,55,928,90,2014-08-02T22:00:00,0,20938046,198085
OK,90,55,928,90,2014-08-02T22:05:00,0,20938495,198085
OK,113,44,928,113,2014-08-02T22:10:00,1,20938944,198085
OK,113,44,928,113,2014-08-02T22:15:00,0,20939393,198085
OK,128,38,928,128,2014-08-02T22:20:00,1,20939842,198085
OK,128,38,928,128,2014-08-02T22:25:00,1,20940291,198085
OK,128,38,928,128,2014-08-02T22:30:00,0,20940740,198085
OK,128,38,928,128,2014-08-02T22:35:00,0,20941189,198085
OK,128,38,928,128,2014-08-02T22:40:00,0,20941638,198085
OK,128,38,928,128,2014-08-02T22:45:00,0,20942087,198085
OK,94,52,928,94,2014-08-02T22:50:00,1,20942536,198085
OK,112,44,928,112,2014-08-02T22:55:00,1,20942985,198085
OK,145,34,928,145,2014-08-02T23:00:00,1,20943434,198085
OK,145,34,928,145,2014-08-02T23:10:00,0,20943883,198085
OK,145,34,928,145,2014-08-02T23:15:00,0,20944332,198085
OK,145,34,928,145,2014-08-02T23:20:00,0,20944781,198085
OK,145,34,928,145,2014-08-02T23:25:00,0,20945230,198085
OK,145,34,928,145,2014-08-02T23:30:00,0,20945679,198085
OK,145,34,928,145,2014-08-02T23:35:00,0,20946128,198085
OK,99,50,928,99,2014-08-02T23:40:00,1,20946577,198085
OK,99,50,928,99,2014-08-02T23:45:00,0,20947026,198085
OK,96,51,928,96,2014-08-02T23:50:00,2,20947475,198085
OK,96,51,928,96,2014-08-02T23:55:00,2,20947924,198085
OK,96,51,928,96,2014-08-03T00:00:00,0,20948373,198085
OK,96,51,928,96,2014-08-03T00:05:00,0,20948822,198085
OK,92,54,928,92,2014-08-03T00:10:00,1,20949270,198085
OK,92,54,928,92,2014-08-03T00:15:00,1,20949719,198085
OK,92,54,928,92,2014-08-03T00:20:00,0,20950168,198085
OK,107,46,928,107,2014-08-03T00:25:00,0,20950617,198085
OK,107,46,928,107,2014-08-03T00:30:00,0,20951066,198085
OK,107,46,928,107,2014-08-03T00:35:00,0,20951515,198085
OK,107,46,928,107,2014-08-03T00:40:00,0,20951964,198085
OK,107,46,928,107,2014-08-03T00:45:00,0,20952413,198085
OK,107,46,928,107,2014-08-03T00:50:00,0,20952862,198085
OK,107,46,928,107,2014-08-03T00:55:00,0,20953311,198085
OK,107,46,928,107,2014-08-03T01:00:00,0,20953760,198085
OK,107,46,928,107,2014-08-03T01:05:00,0,20954209,198085
OK,107,46,928,107,2014-08-03T01:10:00,0,20954658,198085
OK,107,46,928,107,2014-08-03T01:15:00,0,20955107,198085
OK,86,57,928,86,2014-08-03T01:20:00,1,20955556,198085
OK,86,57,928,86,2014-08-03T01:25:00,1,20956005,198085